Location: Orange
(33.2833°S, 149.1000°E)
Time: 01:13:47
(UTC+11:00)

X-37B - Pass Details

Date: 08 December 2021
Orbit: 334 x 337 km, 45.0° (Epoch: 11 January)

Event Time Altitude Azimuth Distance (km) Brightness Sun altitude
Exits shadow 04:54:22 - 359° (N) 1,589 3.3 -10.2°
Reaches altitude 10° 04:55:38 10° 17° (NNE) 1,275 3.0 -10.0°
Maximum altitude 04:56:56 12° 44° (NE) 1,150 3.1 -9.7°
Drops below altitude 10° 04:58:15 10° 72° (ENE) 1,284 3.7 -9.5°
Sets 05:01:07 0° 103° (ESE) 2,132 5.8 -9.0°
